timestamp,wind_dir_avg,wind_spd_avg,wind_spd_max_dir,wind_spd_gust,battery_voltage,lat,long
2022-11-01 00:04:00+00:00,282.0,5.41,282.0,7.17,12.49,47.59359,-54.27349
2022-11-01 00:14:00+00:00,285.0,6.2,282.0,7.88,12.49,47.59359,-54.27349
2022-11-01 00:24:00+00:00,290.0,5.6,282.0,7.0,12.49,47.59359,-54.27349
2022-11-01 00:34:00+00:00,286.0,5.43,281.0,6.51,12.49,47.59359,-54.27349
2022-11-01 00:44:00+00:00,289.0,6.47,284.0,8.3,12.49,47.59359,-54.27349
2022-11-01 00:54:00+00:00,296.0,6.18,287.0,7.17,12.49,47.59359,-54.27349
2022-11-01 01:04:00+00:00,300.0,7.21,305.0,8.15,12.49,47.59359,-54.27349
2022-11-01 01:14:00+00:00,311.0,6.84,308.0,8.89,12.41,47.59359,-54.27349
2022-11-01 01:24:00+00:00,310.0,6.03,308.0,6.86,12.41,47.59359,-54.27349
2022-11-01 01:34:00+00:00,304.0,5.36,300.0,5.99,12.41,47.59359,-54.27349
2022-11-01 01:44:00+00:00,308.0,5.5,317.0,6.1,12.41,47.59359,-54.27349
2022-11-01 01:54:00+00:00,309.0,5.8,311.0,6.78,12.41,47.59359,-54.27349
2022-11-01 02:04:00+00:00,309.0,5.93,307.0,7.42,12.41,47.59359,-54.27349
2022-11-01 02:14:00+00:00,308.0,4.64,309.0,5.27,12.41,47.59359,-54.27349
2022-11-01 02:24:00+00:00,319.0,5.7,327.0,6.57,12.41,47.59359,-54.27349
2022-11-01 02:34:00+00:00,322.0,5.42,321.0,6.06,12.41,47.59359,-54.27349
2022-11-01 02:44:00+00:00,325.0,5.44,323.0,6.76,12.41,47.59359,-54.27349
2022-11-01 02:54:00+00:00,333.0,5.05,335.0,6.07,12.41,47.59359,-54.27349
2022-11-01 03:04:00+00:00,326.0,5.75,327.0,6.6,12.41,47.59359,-54.27349
2022-11-01 03:14:00+00:00,329.0,6.55,326.0,7.18,12.41,47.59359,-54.27349
2022-11-01 03:24:00+00:00,331.0,7.86,329.0,8.35,12.41,47.59359,-54.27349
2022-11-01 03:34:00+00:00,330.0,6.49,333.0,7.69,12.41,47.59359,-54.27349
2022-11-01 03:44:00+00:00,331.0,6.67,332.0,7.5,12.41,47.59359,-54.27349
2022-11-01 03:54:00+00:00,335.0,8.28,338.0,9.15,12.41,47.59359,-54.27349
2022-11-01 04:04:00+00:00,337.0,6.86,339.0,7.47,12.41,47.59359,-54.27349
2022-11-01 04:14:01+00:00,357.0,7.22,348.0,8.3,12.41,47.59359,-54.27349
2022-11-01 04:24:01+00:00,356.0,8.02,355.0,9.77,12.41,47.59359,-54.27349
2022-11-01 04:34:01+00:00,359.0,8.05,356.0,8.98,12.41,47.59359,-54.27349
2022-11-01 04:44:01+00:00,13.0,9.11,17.0,10.47,12.41,47.59359,-54.27349
2022-11-01 04:54:01+00:00,15.0,7.77,15.0,8.98,12.41,47.59359,-54.27349
2022-11-01 05:04:01+00:00,25.0,8.12,27.0,8.78,12.41,47.59359,-54.27349
2022-11-01 05:14:00+00:00,29.0,8.01,34.0,9.22,12.41,47.59359,-54.27349
2022-11-01 05:24:00+00:00,25.0,8.18,23.0,9.19,12.41,47.59359,-54.27349
2022-11-01 05:34:00+00:00,32.0,8.42,32.0,9.57,12.41,47.59359,-54.27349
2022-11-01 05:44:00+00:00,35.0,8.12,38.0,9.1,12.41,47.59359,-54.27349
2022-11-01 05:54:00+00:00,30.0,8.86,28.0,10.08,12.41,47.59359,-54.27349
2022-11-01 06:04:00+00:00,33.0,8.39,34.0,9.44,12.41,47.59359,-54.27349
2022-11-01 06:14:00+00:00,35.0,9.59,41.0,11.38,12.41,47.59359,-54.27349
2022-11-01 06:24:00+00:00,33.0,8.68,31.0,9.57,12.41,47.59359,-54.27349
2022-11-01 06:34:00+00:00,32.0,8.35,32.0,9.74,12.41,47.59359,-54.27349
2022-11-01 06:44:00+00:00,36.0,8.36,43.0,10.11,12.41,47.59359,-54.27349
2022-11-01 06:54:00+00:00,31.0,9.38,42.0,10.54,12.41,47.59359,-54.27349
2022-11-01 07:04:00+00:00,35.0,8.83,40.0,10.27,12.41,47.59359,-54.27349
2022-11-01 07:14:00+00:00,38.0,8.89,42.0,11.04,12.33,47.59359,-54.27349
2022-11-01 07:24:00+00:00,30.0,9.65,32.0,10.99,12.33,47.59359,-54.27349
2022-11-01 07:34:00+00:00,39.0,7.28,48.0,8.2,12.33,47.59359,-54.27349
2022-11-01 07:44:00+00:00,40.0,7.68,40.0,9.09,12.33,47.59359,-54.27349
2022-11-01 07:54:00+00:00,33.0,7.66,29.0,9.51,12.33,47.59359,-54.27349
2022-11-01 08:04:00+00:00,35.0,7.27,37.0,8.53,12.33,47.59359,-54.27349
2022-11-01 08:14:00+00:00,48.0,7.71,49.0,8.69,12.25,47.59359,-54.27349
2022-11-01 08:24:00+00:00,40.0,7.32,49.0,8.89,12.25,47.59359,-54.27349
2022-11-01 08:34:00+00:00,40.0,8.84,44.0,10.09,12.25,47.59359,-54.27349
2022-11-01 08:44:00+00:00,44.0,7.42,38.0,8.73,12.25,47.59359,-54.27349
2022-11-01 08:54:00+00:00,52.0,6.74,49.0,8.42,12.25,47.59359,-54.27349
2022-11-01 09:04:00+00:00,48.0,7.15,57.0,8.01,12.25,47.59359,-54.27349
2022-11-01 09:14:00+00:00,53.0,8.5,52.0,9.6,12.25,47.59359,-54.27349
2022-11-01 09:24:00+00:00,54.0,7.48,55.0,8.88,12.25,47.59359,-54.27349
2022-11-01 09:34:00+00:00,49.0,7.87,48.0,9.35,12.25,47.59359,-54.27349
2022-11-01 09:44:00+00:00,47.0,7.12,49.0,8.79,12.25,47.59359,-54.27349
2022-11-01 09:54:00+00:00,70.0,7.31,71.0,8.14,12.25,47.59359,-54.27349
2022-11-01 10:04:00+00:00,61.0,6.77,68.0,8.24,12.25,47.59359,-54.27349
2022-11-01 10:14:01+00:00,69.0,7.48,73.0,8.45,12.17,47.59359,-54.27349
2022-11-01 10:24:01+00:00,71.0,5.93,69.0,7.39,12.17,47.59359,-54.27349
2022-11-01 10:34:01+00:00,70.0,5.76,75.0,8.12,12.17,47.59359,-54.27349
2022-11-01 10:44:01+00:00,58.0,6.37,58.0,7.14,12.17,47.59359,-54.27349
2022-11-01 10:54:01+00:00,54.0,5.15,52.0,5.93,12.17,47.59359,-54.27349
2022-11-01 11:04:01+00:00,56.0,5.33,56.0,6.59,12.17,47.59359,-54.27349
2022-11-01 11:14:00+00:00,53.0,4.51,60.0,5.37,13.37,47.59359,-54.27349
2022-11-01 11:24:00+00:00,57.0,5.23,63.0,6.81,13.37,47.59359,-54.27349
2022-11-01 11:34:00+00:00,71.0,5.42,75.0,6.62,13.37,47.59359,-54.27349
2022-11-01 11:44:00+00:00,74.0,4.5,73.0,6.23,13.37,47.59359,-54.27349
2022-11-01 11:54:00+00:00,71.0,5.07,70.0,6.82,13.37,47.59359,-54.27349
2022-11-01 12:04:00+00:00,71.0,3.62,76.0,5.22,13.37,47.59359,-54.27349
2022-11-01 12:14:00+00:00,63.0,3.61,59.0,5.12,14.4,47.59359,-54.27349
2022-11-01 12:24:00+00:00,63.0,3.27,59.0,4.38,14.4,47.59359,-54.27349
2022-11-01 12:34:00+00:00,66.0,3.75,77.0,5.02,14.4,47.59359,-54.27349
2022-11-01 12:44:00+00:00,71.0,3.14,83.0,4.7,14.4,47.59359,-54.27349
2022-11-01 12:54:00+00:00,67.0,2.82,71.0,5.09,14.4,47.59359,-54.27349
2022-11-01 13:04:00+00:00,62.0,3.89,52.0,5.67,14.4,47.59359,-54.27349
2022-11-01 13:14:01+00:00,74.0,3.11,76.0,4.7,14.16,47.59359,-54.27349
2022-11-01 13:24:01+00:00,76.0,2.94,66.0,5.34,14.16,47.59359,-54.27349
2022-11-01 13:34:01+00:00,100.0,1.95,113.0,3.49,14.16,47.59359,-54.27349
2022-11-01 13:44:01+00:00,75.0,3.21,78.0,4.64,14.16,47.59359,-54.27349
2022-11-01 13:54:01+00:00,125.0,4.0,120.0,4.95,14.16,47.59359,-54.27349
2022-11-01 14:04:01+00:00,127.0,3.16,123.0,4.22,14.16,47.59359,-54.27349
2022-11-01 14:14:00+00:00,116.0,2.02,137.0,2.98,13.6,47.59359,-54.27349
2022-11-01 14:24:00+00:00,85.0,1.09,81.0,1.76,13.6,47.59359,-54.27349
2022-11-01 14:34:00+00:00,133.0,3.25,123.0,4.35,13.6,47.59359,-54.27349
2022-11-01 14:44:00+00:00,132.0,2.2,119.0,3.03,13.6,47.59359,-54.27349
2022-11-01 14:54:00+00:00,139.0,3.71,136.0,4.23,13.6,47.59359,-54.27349
2022-11-01 15:04:00+00:00,149.0,3.57,143.0,4.17,13.6,47.59359,-54.27349
2022-11-01 15:14:00+00:00,132.0,2.02,147.0,3.26,13.68,47.59359,-54.27349
2022-11-01 15:24:00+00:00,152.0,1.92,155.0,2.33,13.68,47.59359,-54.27349
2022-11-01 15:34:00+00:00,153.0,1.57,168.0,1.94,13.68,47.59359,-54.27349
2022-11-01 15:44:00+00:00,183.0,0.89,190.0,1.25,13.68,47.59359,-54.27349
2022-11-01 15:54:00+00:00,181.0,1.89,176.0,2.44,13.68,47.59359,-54.27349
2022-11-01 16:04:00+00:00,154.0,1.9,154.0,2.46,13.68,47.59359,-54.27349
2022-11-01 16:14:01+00:00,207.0,2.25,206.0,2.57,13.84,47.59359,-54.27349
2022-11-01 16:24:01+00:00,194.0,2.29,200.0,2.82,13.84,47.59359,-54.27349
2022-11-01 16:34:01+00:00,174.0,2.44,166.0,2.89,13.84,47.59359,-54.27349
2022-11-01 16:44:01+00:00,218.0,1.91,206.0,2.25,13.84,47.59359,-54.27349
2022-11-01 16:54:01+00:00,211.0,2.47,208.0,3.0,13.84,47.59359,-54.27349
2022-11-01 17:04:01+00:00,199.0,1.82,208.0,2.5,13.84,47.59359,-54.27349
2022-11-01 17:14:00+00:00,198.0,2.19,199.0,2.56,13.76,47.59359,-54.27349
2022-11-01 17:24:00+00:00,220.0,3.97,224.0,4.65,13.76,47.59359,-54.27349
2022-11-01 17:34:00+00:00,221.0,3.91,217.0,4.65,13.76,47.59359,-54.27349
2022-11-01 17:44:00+00:00,221.0,1.86,231.0,2.42,13.76,47.59359,-54.27349
2022-11-01 17:54:00+00:00,183.0,3.33,180.0,3.99,13.76,47.59359,-54.27349
2022-11-01 18:04:00+00:00,219.0,5.61,224.0,6.74,13.76,47.59359,-54.27349
2022-11-01 18:14:00+00:00,231.0,6.49,239.0,8.04,13.76,47.59359,-54.27349
2022-11-01 18:24:00+00:00,234.0,5.68,232.0,6.71,13.76,47.59359,-54.27349
2022-11-01 18:34:00+00:00,238.0,5.06,241.0,5.98,13.76,47.59359,-54.27349
2022-11-01 18:44:00+00:00,223.0,5.8,225.0,6.67,13.76,47.59359,-54.27349
2022-11-01 18:54:00+00:00,229.0,5.04,232.0,6.4,13.76,47.59359,-54.27349
2022-11-01 19:04:00+00:00,241.0,5.06,244.0,6.01,13.76,47.59359,-54.27349
2022-11-01 19:14:01+00:00,249.0,5.24,248.0,6.06,13.29,47.59359,-54.27349
2022-11-01 19:24:01+00:00,225.0,4.74,223.0,5.67,13.29,47.59359,-54.27349
2022-11-01 19:34:01+00:00,229.0,5.02,234.0,5.89,13.29,47.59359,-54.27349
2022-11-01 19:44:01+00:00,206.0,5.46,210.0,6.94,13.29,47.59359,-54.27349
2022-11-01 19:54:01+00:00,206.0,5.54,215.0,6.63,13.29,47.59359,-54.27349
2022-11-01 20:04:01+00:00,216.0,5.55,230.0,6.63,13.29,47.59359,-54.27349
2022-11-01 20:14:01+00:00,206.0,5.46,208.0,6.27,12.73,47.59359,-54.27349
2022-11-01 20:24:01+00:00,202.0,7.42,193.0,8.45,12.73,47.59359,-54.27349
2022-11-01 20:34:01+00:00,193.0,6.9,190.0,8.31,12.73,47.59359,-54.27349
2022-11-01 20:44:01+00:00,198.0,7.36,201.0,8.89,12.73,47.59359,-54.27349
2022-11-01 20:54:01+00:00,196.0,7.91,195.0,8.8,12.73,47.59359,-54.27349
2022-11-01 21:04:01+00:00,198.0,8.7,197.0,9.56,12.73,47.59359,-54.27349
2022-11-01 21:14:00+00:00,194.0,7.46,192.0,8.47,12.57,47.59359,-54.27349
2022-11-01 21:24:00+00:00,195.0,7.98,197.0,8.92,12.57,47.59359,-54.27349
2022-11-01 21:34:00+00:00,197.0,6.78,200.0,8.95,12.57,47.59359,-54.27349
2022-11-01 21:44:00+00:00,190.0,5.88,196.0,6.62,12.57,47.59359,-54.27349
2022-11-01 21:54:00+00:00,189.0,5.83,192.0,6.64,12.57,47.59359,-54.27349
2022-11-01 22:04:00+00:00,182.0,6.27,185.0,6.71,12.57,47.59359,-54.27349
2022-11-01 22:14:00+00:00,170.0,5.92,170.0,6.59,12.49,47.59359,-54.27349
2022-11-01 22:24:00+00:00,179.0,5.47,182.0,6.19,12.49,47.59359,-54.27349
2022-11-01 22:34:00+00:00,169.0,4.98,157.0,5.96,12.49,47.59359,-54.27349
2022-11-01 22:44:00+00:00,165.0,4.41,178.0,5.39,12.49,47.59359,-54.27349
2022-11-01 22:54:00+00:00,166.0,5.05,167.0,5.87,12.49,47.59359,-54.27349
2022-11-01 23:04:00+00:00,165.0,4.86,166.0,5.73,12.49,47.59359,-54.27349
2022-11-01 23:14:00+00:00,175.0,4.65,179.0,5.11,12.49,47.59359,-54.27349
2022-11-01 23:24:00+00:00,170.0,4.79,170.0,5.36,12.49,47.59359,-54.27349
2022-11-01 23:34:00+00:00,165.0,4.71,165.0,5.68,12.49,47.59359,-54.27349
2022-11-01 23:44:00+00:00,170.0,4.58,164.0,5.24,12.49,47.59359,-54.27349
2022-11-01 23:54:00+00:00,161.0,4.64,161.0,6.07,12.49,47.59359,-54.27349
